PTI737 EGKK-EGPH

Flight info

Callsign PTI737
Flight time 0h 55m
Altitude 28000
Route LAM L10 BPK N601 INPIP
Aircraft B737/M-SDE2E3FGHIRWXY/LB1

Departure

Time 2026-05-06 09:22
Airport London Gatwick Airport (EGKK)

Arrival

Time 2026-05-06 10:18
Airport Edinburgh Airport (EGPH)
Time Latitude Longitude Altitude Speed Heading
2026-05-06 08:50 51.15448 -0.17609 212 ft 0 kts 167°
2026-05-06 09:05 51.15455 -0.17611 214 ft 4 kts 167°
2026-05-06 09:05 51.15481 -0.17621 209 ft 4 kts 167°
2026-05-06 09:05 51.15502 -0.17628 204 ft 4 kts 180°
2026-05-06 09:05 51.15522 -0.17617 208 ft 4 kts 246°
2026-05-06 09:06 51.15528 -0.17580 210 ft 2 kts 257°
2026-05-06 09:06 51.15529 -0.17577 211 ft 0 kts 257°
2026-05-06 09:08 51.15511 -0.17709 203 ft 20 kts 257°
2026-05-06 09:08 51.15480 -0.17933 205 ft 20 kts 258°
2026-05-06 09:08 51.15460 -0.18078 210 ft 20 kts 258°
2026-05-06 09:08 51.15418 -0.18277 205 ft 14 kts 212°
2026-05-06 09:09 51.15328 -0.18255 203 ft 20 kts 168°
2026-05-06 09:09 51.15208 -0.18229 203 ft 9 kts 205°
2026-05-06 09:09 51.15179 -0.18381 203 ft 25 kts 259°
2026-05-06 09:09 51.15143 -0.18654 212 ft 25 kts 257°
2026-05-06 09:10 51.15106 -0.18909 205 ft 23 kts 257°
2026-05-06 09:10 51.15073 -0.19153 203 ft 22 kts 258°
2026-05-06 09:10 51.15041 -0.19391 212 ft 22 kts 258°
2026-05-06 09:10 51.15009 -0.19621 212 ft 21 kts 257°
2026-05-06 09:11 51.14977 -0.19844 207 ft 20 kts 257°
2026-05-06 09:11 51.14947 -0.20062 204 ft 20 kts 258°
2026-05-06 09:11 51.14919 -0.20272 202 ft 19 kts 258°
2026-05-06 09:11 51.14888 -0.20475 202 ft 19 kts 256°
2026-05-06 09:12 51.14862 -0.20672 202 ft 18 kts 258°
2026-05-06 09:12 51.14838 -0.20863 208 ft 18 kts 258°
2026-05-06 09:12 51.14802 -0.21125 203 ft 26 kts 249°
2026-05-06 09:12 51.14751 -0.21380 211 ft 19 kts 229°
2026-05-06 09:13 51.14646 -0.21341 204 ft 9 kts 153°
2026-05-06 09:13 51.14618 -0.21328 203 ft 0 kts 168°
2026-05-06 09:21 51.14588 -0.21317 212 ft 20 kts 165°
2026-05-06 09:21 51.14538 -0.21029 203 ft 45 kts 77°
2026-05-06 09:22 51.14670 -0.20076 209 ft 129 kts 77°
2026-05-06 09:22 51.14870 -0.18443 727 ft 148 kts 76°
2026-05-06 09:22 51.15081 -0.16813 1752 ft 160 kts 73°
2026-05-06 09:22 51.15349 -0.14890 2407 ft 196 kts 73°
2026-05-06 09:23 51.15664 -0.12592 2967 ft 223 kts 74°
2026-05-06 09:23 51.15996 -0.10122 3921 ft 231 kts 73°
2026-05-06 09:23 51.16345 -0.07590 4910 ft 237 kts 69°
2026-05-06 09:23 51.17195 -0.05384 5808 ft 235 kts 38°
2026-05-06 09:24 51.18520 -0.03844 6678 ft 244 kts 41°
2026-05-06 09:24 51.19564 -0.01588 7427 ft 263 kts 51°
2026-05-06 09:24 51.20648 0.00801 8492 ft 269 kts 49°
2026-05-06 09:24 51.22071 0.02689 9577 ft 269 kts 19°
2026-05-06 09:25 51.23900 0.03089 10670 ft 268 kts 355°
2026-05-06 09:25 51.25780 0.02774 11593 ft 278 kts 352°
2026-05-06 09:25 51.27710 0.02358 12502 ft 283 kts 351°
2026-05-06 09:25 51.29672 0.01924 12909 ft 281 kts 351°
2026-05-06 09:26 51.31625 0.01421 12995 ft 287 kts 345°
2026-05-06 09:26 51.33553 0.00539 13000 ft 290 kts 342°
2026-05-06 09:26 51.35467 -0.00434 12989 ft 288 kts 341°
2026-05-06 09:26 51.37367 -0.01424 12985 ft 287 kts 341°
2026-05-06 09:27 51.39258 -0.02418 12985 ft 286 kts 341°
2026-05-06 09:27 51.41141 -0.03412 12993 ft 284 kts 341°
2026-05-06 09:27 51.43032 -0.04410 13102 ft 290 kts 341°
2026-05-06 09:27 51.44969 -0.05437 13993 ft 297 kts 341°
2026-05-06 09:28 51.46927 -0.06474 15138 ft 295 kts 340°
2026-05-06 09:28 51.48881 -0.07538 16186 ft 299 kts 337°
2026-05-06 09:28 51.50823 -0.08795 17222 ft 304 kts 336°
2026-05-06 09:28 51.52801 -0.10103 18204 ft 310 kts 336°
2026-05-06 09:29 51.54823 -0.11403 19105 ft 316 kts 337°
2026-05-06 09:29 51.56891 -0.12688 20033 ft 320 kts 337°
2026-05-06 09:29 51.58993 -0.13956 20979 ft 325 kts 337°
2026-05-06 09:29 51.61124 -0.15217 21920 ft 329 kts 338°
2026-05-06 09:30 51.63301 -0.16490 22773 ft 336 kts 338°
2026-05-06 09:30 51.65520 -0.17777 23636 ft 342 kts 338°
2026-05-06 09:30 51.67774 -0.19078 24416 ft 346 kts 338°
2026-05-06 09:30 51.70049 -0.20388 25233 ft 348 kts 338°
2026-05-06 09:31 51.72347 -0.21712 26000 ft 353 kts 338°
2026-05-06 09:31 51.74673 -0.23052 26741 ft 358 kts 338°
2026-05-06 09:31 51.77033 -0.24413 27499 ft 362 kts 339°
2026-05-06 09:31 51.79415 -0.25787 27944 ft 365 kts 338°
2026-05-06 09:32 51.81790 -0.27160 28002 ft 374 kts 338°
2026-05-06 09:32 51.84294 -0.28611 28019 ft 392 kts 338°
2026-05-06 09:32 51.86917 -0.30132 28019 ft 409 kts 338°
2026-05-06 09:32 51.89648 -0.31718 28005 ft 424 kts 338°
2026-05-06 09:33 51.92464 -0.33353 28006 ft 437 kts 338°
2026-05-06 09:33 51.95361 -0.35036 28005 ft 448 kts 339°
2026-05-06 09:33 51.98326 -0.36760 28004 ft 457 kts 338°
2026-05-06 09:33 52.01347 -0.38519 27999 ft 465 kts 338°
2026-05-06 09:34 52.04402 -0.40302 28006 ft 467 kts 339°
2026-05-06 09:34 52.10378 -0.44298 28015 ft 463 kts 328°
2026-05-06 09:35 52.15857 -0.49753 28012 ft 462 kts 326°
2026-05-06 09:35 52.21349 -0.55194 28014 ft 463 kts 327°
2026-05-06 09:36 52.26918 -0.60610 28016 ft 468 kts 327°
2026-05-06 09:36 52.32513 -0.66075 28007 ft 469 kts 327°
2026-05-06 09:36 52.35316 -0.68822 28000 ft 469 kts 327°
2026-05-06 09:37 52.38118 -0.71573 27994 ft 469 kts 327°
2026-05-06 09:37 52.40914 -0.74323 28000 ft 469 kts 327°
2026-05-06 09:37 52.43712 -0.77077 28000 ft 469 kts 327°
2026-05-06 09:38 52.49297 -0.82591 28015 ft 469 kts 327°
2026-05-06 09:38 52.54881 -0.88120 28021 ft 468 kts 327°
2026-05-06 09:39 52.60455 -0.93654 28012 ft 468 kts 327°
2026-05-06 09:39 52.66038 -0.99190 28018 ft 468 kts 327°
2026-05-06 09:40 52.71614 -1.04721 28024 ft 468 kts 327°
2026-05-06 09:40 52.79952 -1.13064 28049 ft 467 kts 326°
2026-05-06 09:41 52.85496 -1.18659 28054 ft 467 kts 326°
2026-05-06 09:41 52.91034 -1.24259 28046 ft 466 kts 326°
2026-05-06 09:42 52.96571 -1.29871 28052 ft 466 kts 326°
2026-05-06 09:42 53.02110 -1.35489 28051 ft 466 kts 326°
2026-05-06 09:43 53.07646 -1.41115 28036 ft 466 kts 326°
2026-05-06 09:43 53.13177 -1.46756 28043 ft 466 kts 326°
2026-05-06 09:44 53.18702 -1.52410 28059 ft 466 kts 326°
2026-05-06 09:44 53.24226 -1.58080 28070 ft 466 kts 326°
2026-05-06 09:45 53.29735 -1.63750 28060 ft 466 kts 326°
2026-05-06 09:45 53.35256 -1.69443 28075 ft 466 kts 326°
2026-05-06 09:46 53.40771 -1.75146 28067 ft 465 kts 326°
2026-05-06 09:46 53.46275 -1.80855 28065 ft 466 kts 326°
2026-05-06 09:47 53.51783 -1.86598 28072 ft 466 kts 325°
2026-05-06 09:47 53.57250 -1.92322 28069 ft 466 kts 325°
2026-05-06 09:48 53.62752 -1.98087 28073 ft 466 kts 326°
2026-05-06 09:48 53.68298 -2.03888 28073 ft 466 kts 326°
2026-05-06 09:49 53.73809 -2.09653 28092 ft 466 kts 326°
2026-05-06 09:49 53.79751 -2.14144 28078 ft 469 kts 336°
2026-05-06 09:50 53.85830 -2.18151 28071 ft 468 kts 335°
2026-05-06 09:50 53.91825 -2.22277 28072 ft 468 kts 335°
2026-05-06 09:51 53.97860 -2.26425 28094 ft 468 kts 335°
2026-05-06 09:51 54.03899 -2.30584 28079 ft 468 kts 335°
2026-05-06 09:52 54.09929 -2.34760 28076 ft 468 kts 335°
2026-05-06 09:52 54.15960 -2.38947 28067 ft 468 kts 335°
2026-05-06 09:53 54.21991 -2.43129 28070 ft 468 kts 335°
2026-05-06 09:53 54.28024 -2.47316 28072 ft 468 kts 335°
2026-05-06 09:54 54.34051 -2.51515 28072 ft 468 kts 334°
2026-05-06 09:54 54.40077 -2.55730 27917 ft 469 kts 334°
2026-05-06 09:55 54.43101 -2.57850 27779 ft 469 kts 335°
2026-05-06 09:55 54.46114 -2.59964 27645 ft 468 kts 335°
2026-05-06 09:55 54.48153 -2.61398 27565 ft 468 kts 334°
2026-05-06 09:55 54.51166 -2.63519 27439 ft 468 kts 334°
2026-05-06 09:56 54.54176 -2.65650 27297 ft 468 kts 334°
2026-05-06 09:56 54.57183 -2.67786 27178 ft 468 kts 334°
2026-05-06 09:56 54.60189 -2.69925 27051 ft 468 kts 334°
2026-05-06 09:56 54.63199 -2.72070 26905 ft 468 kts 334°
2026-05-06 09:57 54.66206 -2.74215 26788 ft 468 kts 334°
2026-05-06 09:57 54.69173 -2.76334 26670 ft 468 kts 334°
2026-05-06 09:57 54.72184 -2.78487 26553 ft 468 kts 334°
2026-05-06 09:57 54.75197 -2.80639 26422 ft 468 kts 335°
2026-05-06 09:58 54.78211 -2.82793 26297 ft 469 kts 335°
2026-05-06 09:58 54.81227 -2.84951 26165 ft 469 kts 335°
2026-05-06 09:58 54.84246 -2.87115 26086 ft 469 kts 335°
2026-05-06 09:58 54.87258 -2.89279 26074 ft 468 kts 335°
2026-05-06 09:59 54.90265 -2.91447 26069 ft 469 kts 334°
2026-05-06 09:59 54.93275 -2.93627 26067 ft 469 kts 334°
2026-05-06 09:59 54.96288 -2.95816 26067 ft 469 kts 334°
2026-05-06 09:59 54.99301 -2.98008 26080 ft 469 kts 334°
2026-05-06 10:00 55.02311 -3.00201 26071 ft 469 kts 334°
2026-05-06 10:00 55.05310 -3.02388 25814 ft 466 kts 334°
2026-05-06 10:00 55.08286 -3.04560 25403 ft 460 kts 334°
2026-05-06 10:00 55.11225 -3.06706 24858 ft 456 kts 334°
2026-05-06 10:01 55.14138 -3.08836 24125 ft 451 kts 334°
2026-05-06 10:01 55.17053 -3.10974 23365 ft 446 kts 334°
2026-05-06 10:01 55.19862 -3.13042 22549 ft 442 kts 334°
2026-05-06 10:01 55.22680 -3.15124 21761 ft 438 kts 334°
2026-05-06 10:02 55.25475 -3.17188 20981 ft 434 kts 334°
2026-05-06 10:02 55.28241 -3.19231 20209 ft 430 kts 334°
2026-05-06 10:02 55.30983 -3.21257 19461 ft 426 kts 334°
2026-05-06 10:02 55.33702 -3.23270 18732 ft 422 kts 334°
2026-05-06 10:03 55.36391 -3.25264 17954 ft 417 kts 334°
2026-05-06 10:03 55.39047 -3.27240 17144 ft 412 kts 334°
2026-05-06 10:03 55.41663 -3.29194 16356 ft 406 kts 334°
2026-05-06 10:03 55.44239 -3.31131 15586 ft 399 kts 334°
2026-05-06 10:04 55.46768 -3.33043 14835 ft 392 kts 334°
2026-05-06 10:04 55.49248 -3.34932 14100 ft 386 kts 333°
2026-05-06 10:04 55.51456 -3.37497 13284 ft 379 kts 313°
2026-05-06 10:04 55.52855 -3.41353 12487 ft 373 kts 289°
2026-05-06 10:05 55.53210 -3.45823 11752 ft 363 kts 265°
2026-05-06 10:05 55.52696 -3.50029 11162 ft 341 kts 255°
2026-05-06 10:05 55.51994 -3.53921 10525 ft 325 kts 253°
2026-05-06 10:05 55.51280 -3.57625 9892 ft 313 kts 252°
2026-05-06 10:06 55.50829 -3.61283 9179 ft 301 kts 273°
2026-05-06 10:06 55.51410 -3.64689 8683 ft 285 kts 303°
2026-05-06 10:06 55.52628 -3.67271 8441 ft 266 kts 316°
2026-05-06 10:06 55.53968 -3.69414 8161 ft 254 kts 319°
2026-05-06 10:07 55.55270 -3.71415 7891 ft 243 kts 319°
2026-05-06 10:07 55.56647 -3.73024 7613 ft 235 kts 339°
2026-05-06 10:07 55.58180 -3.73965 7360 ft 232 kts 340°
2026-05-06 10:07 55.59694 -3.74901 7096 ft 229 kts 340°
2026-05-06 10:08 55.61215 -3.75844 6862 ft 233 kts 340°
2026-05-06 10:08 55.62752 -3.76797 6622 ft 236 kts 340°
2026-05-06 10:08 55.64298 -3.77757 6360 ft 235 kts 340°
2026-05-06 10:08 55.65836 -3.78713 6092 ft 234 kts 341°
2026-05-06 10:09 55.67371 -3.79667 5826 ft 234 kts 341°
2026-05-06 10:09 55.68902 -3.80620 5562 ft 233 kts 341°
2026-05-06 10:09 55.70431 -3.81573 5291 ft 233 kts 341°
2026-05-06 10:09 55.71959 -3.82525 5060 ft 233 kts 341°
2026-05-06 10:10 55.73479 -3.83473 4998 ft 236 kts 341°
2026-05-06 10:10 55.75035 -3.84445 4971 ft 236 kts 341°
2026-05-06 10:10 55.76597 -3.85323 4960 ft 235 kts 352°
2026-05-06 10:10 55.78156 -3.84816 4984 ft 229 kts 33°
2026-05-06 10:11 55.79274 -3.82843 4979 ft 227 kts 51°
2026-05-06 10:11 55.80253 -3.80650 4986 ft 227 kts 54°
2026-05-06 10:11 55.81155 -3.78326 4981 ft 231 kts 58°
2026-05-06 10:11 55.82002 -3.75896 4949 ft 231 kts 59°
2026-05-06 10:12 55.82825 -3.73450 4718 ft 227 kts 60°
2026-05-06 10:12 55.83610 -3.71102 4412 ft 215 kts 61°
2026-05-06 10:12 55.84350 -3.68892 4137 ft 201 kts 61°
2026-05-06 10:12 55.85046 -3.66815 3856 ft 190 kts 62°
2026-05-06 10:13 55.85704 -3.64849 3599 ft 180 kts 61°
2026-05-06 10:13 55.86316 -3.63028 3360 ft 164 kts 62°
2026-05-06 10:13 55.86877 -3.61358 3143 ft 151 kts 62°
2026-05-06 10:13 55.87406 -3.59778 2933 ft 147 kts 62°
2026-05-06 10:14 55.87928 -3.58225 2756 ft 147 kts 62°
2026-05-06 10:14 55.88452 -3.56665 2539 ft 146 kts 62°
2026-05-06 10:14 55.88962 -3.55148 2377 ft 143 kts 62°
2026-05-06 10:14 55.89465 -3.53655 2142 ft 135 kts 62°
2026-05-06 10:15 55.89927 -3.52284 1949 ft 123 kts 62°
2026-05-06 10:15 55.90363 -3.51010 1707 ft 124 kts 62°
2026-05-06 10:15 55.90798 -3.49682 1536 ft 121 kts 64°
2026-05-06 10:15 55.91237 -3.48372 1364 ft 126 kts 62°
2026-05-06 10:16 55.91697 -3.47061 1170 ft 120 kts 61°
2026-05-06 10:16 55.92131 -3.45773 1000 ft 121 kts 63°
2026-05-06 10:16 55.92557 -3.44432 846 ft 123 kts 61°
2026-05-06 10:16 55.92988 -3.43134 694 ft 119 kts 59°
2026-05-06 10:17 55.93408 -3.41900 537 ft 116 kts 58°
2026-05-06 10:17 55.93839 -3.40669 403 ft 116 kts 58°
2026-05-06 10:17 55.94258 -3.39441 237 ft 115 kts 57°
2026-05-06 10:17 55.94654 -3.38282 116 ft 101 kts 58°
2026-05-06 10:18 55.94907 -3.37533 108 ft 41 kts 60°
2026-05-06 10:18 55.95037 -3.37138 105 ft 36 kts 59°
2026-05-06 10:18 55.95156 -3.36786 108 ft 31 kts 58°
2026-05-06 10:18 55.95254 -3.36482 102 ft 21 kts 82°
2026-05-06 10:19 55.95165 -3.36319 103 ft 18 kts 146°
2026-05-06 10:19 55.95121 -3.36141 103 ft 15 kts 109°
2026-05-06 10:19 55.95090 -3.35983 105 ft 13 kts 113°
2026-05-06 10:19 55.95024 -3.35835 105 ft 18 kts 174°
2026-05-06 10:20 55.94911 -3.35784 107 ft 23 kts 121°
2026-05-06 10:20 55.94828 -3.35520 107 ft 24 kts 119°
2026-05-06 10:20 55.94749 -3.35268 109 ft 23 kts 119°
2026-05-06 10:20 55.94692 -3.35154 110 ft 6 kts 195°
2026-05-06 10:21 55.94628 -3.35232 111 ft 6 kts 259°
2026-05-06 10:21 55.94641 -3.35278 110 ft 1 kts 299°
2026-05-06 10:21 55.94642 -3.35279 110 ft 0 kts 299°